Regional Weather Roundup
Issued by NWS

Home | Current Version | Previous Version | Graphics & Text | Print | Product List | Glossary Off
Versions: 1 2 3 4 5 6 7 8 9 10 11 12 13 14 15 16 17 18 19 20 21 22 23 24 25 26 27 28 29 30 31 32 33 34 35 36 37 38 39 40 41 42 43 44 45 46 47 48 49 50

185
ASUS43 KMKX 240800
RWRWI

WISCONSIN REGIONAL WEATHER ROUNDUP
NATIONAL WEATHER SERVICE MILWAUKEE/SULLIVAN WI
300 AM CDT TUE MAY 24 2016

NOTE: "FAIR" INDICATES FEW OR NO CLOUDS BELOW 12,000 FEET WITH NO
SIGNIFICANT WEATHER AND/OR OBSTRUCTIONS TO VISIBILITY.

WIZ001-002-006>008-014>016-023>028-240900-
NORTHWEST WISCONSIN

CITY           SKY/WX    TMP DP  RH WIND       PRES   REMARKS
SUPERIOR ARPT  CLOUDY    57  57 100 CALM      29.79R FOG
ASHLAND        CLOUDY    59  59 100 CALM      29.82R
HAYWARD        CLOUDY    59  57  93 CALM      29.83F FOG
SIREN          DRIZZLE   61  59  95 SE3       29.81S
CUMBERLAND     CLOUDY    61  55  82 CALM      29.83R
RICE LAKE      CLOUDY    64  58  83 CALM      29.83F
CHETEK         CLOUDY    62  61  98 CALM      29.83S
LADYSMITH      LGT RAIN  64  61  91 SE6       29.85S
EAU CLAIRE     NOT AVBL
MENOMONIE      PTCLDY    63  62  98 SE7       29.83S
NEW RICHMOND   PTCLDY    62  60  94 CALM      29.82S
OSCEOLA        CLOUDY    64  64 100 SE5       29.83S
$$

WIZ003>005-009-010-017-018-240900-
NORTH CENTRAL WISCONSIN

CITY           SKY/WX    TMP DP  RH WIND       PRES   REMARKS
MANITOWISH WTR LGT RAIN  60  60 100 CALM      29.86S
ARBOR VITAE    DRIZZLE   64  59  83 W3        29.86S
WOODRUFF       DRIZZLE   64  59  83 W3        29.86S
RHINELANDER    LGT RAIN  61  54  77 W5        29.88S
EAGLE RIVER      N/A     60  47  61 CALM      29.86S
LAND O LAKES   CLOUDY    58  56  90 CALM      29.87S
PHILLIPS       LGT RAIN  63  60  90 S6        29.85S
TOMAHAWK       LGT RAIN  60  56  86 CALM      29.87F
MEDFORD        CLOUDY    61  61 100 W3        29.88S THUNDER
MERRILL        CLOUDY    59  53  78 CALM      29.87F
$$

WIZ029-030-035-036-043>047-240900-
CENTRAL WISCONSIN

CITY           SKY/WX    TMP DP  RH WIND       PRES   REMARKS
WAUSAU         MOCLDY    64  51  62 CALM      29.86S
MOSINEE        PTCLDY    61  48  63 CALM      29.89S
MARSHFIELD     LGT RAIN  62  56  80 SE3       29.88R
STEVENS POINT  CLOUDY    57  48  73 CALM      29.88F
WAUPACA        CLEAR     55  49  80 CALM      29.89S
WAUTOMA        CLEAR     52  49  89 CALM      29.89S
WISC RAPIDS    MOCLDY    60  48  64 CALM      29.89R
CAMP DOUGLAS   NOT AVBL
$$

WIZ011>013-019>022-031-037>040-048>050-240900-
NORTHEAST WISCONSIN

CITY           SKY/WX    TMP DP  RH WIND       PRES   REMARKS
ANTIGO         MOCLDY    57  49  75 CALM      29.90R
SHAWANO        MOCLDY    61  49  65 CALM      29.89S
OCONTO         PTCLDY    52  50  93 CALM      29.86S
STURGEON BAY   NOT AVBL
GREEN BAY      CLEAR     62  42  47 S8        29.89R
MANITOWOC      NOT AVBL
APPLETON       CLEAR     61  43  51 S5        29.88R
CLINTONVILLE   MOCLDY    59  48  67 CALM      29.89R
OSHKOSH        CLEAR     61  44  53 S10       29.89S
$$

WIZ032>034-041-042-053>061-240900-
SOUTHWEST WISCONSIN

CITY           SKY/WX    TMP DP  RH WIND       PRES   REMARKS
LA CROSSE      CLOUDY    68  58  70 SE7       29.84S
SPARTA         CLOUDY    62  56  82 CALM      29.87S
VIROQUA        CLOUDY    67  49  52 S9        29.88F
BOSCOBEL       CLOUDY    58  52  80 CALM      29.87F
PRAIRIE DU CHI MOCLDY    67  50  54 CALM      29.86F
PLATTEVILLE    PTCLDY    65  49  57 S7        29.91S
$$

WIZ056-057-062-063-064-067-068-240900-
SOUTH CENTRAL WISCONSIN

CITY           SKY/WX    TMP DP  RH WIND       PRES   REMARKS
REEDSBURG      PTCLDY    62  49  62 CALM      29.88F
BARABOO/DELLS  PTCLDY    62  46  56 SW6       29.89S
LONE ROCK      NOT AVBL
MINERAL POINT  PTCLDY    63  45  51 S8        29.91S
MADISON        CLOUDY    60  49  66 S3        29.91R
MIDDLETON      CLOUDY    58  49  74 CALM      29.91S
WATERTOWN      CLEAR     57  45  63 CALM      29.91R
MONROE         CLOUDY    63  46  55 SW10      29.92S
JANESVILLE     CLOUDY    61  46  59 CALM      29.92R
$$

WIZ051-052-058>065-066-070>072-240900-
SOUTHEAST WISCONSIN

CITY           SKY/WX    TMP DP  RH WIND       PRES   REMARKS
MILWAUKEE      PTCLDY    60  41  49 SW6       29.92S
WAUKESHA       CLEAR     59  37  44 S5        29.93S
MILWAUKEE/TIMM CLEAR     59  36  41 CALM      29.92S
RACINE         CLEAR     58  43  57 SW7       29.94S
BURLINGTON     CLEAR     50  46  84 CALM      29.93R
KENOSHA        PTCLDY    60  43  53 SW6       29.93S
FOND DU LAC    CLEAR     61  42  49 S8        29.90S
SHEBOYGAN      CLEAR     52  42  69 CALM      29.91S
WEST BEND      CLEAR     55  39  54 CALM      29.91S
JUNEAU         CLEAR     59  44  56 S6        29.92S
$$

LSZ147-162-240900-
LAKE SUPERIOR

STATION/POSITION TIME  TEMP    WIND        PRES    WAVE
                       AIR SEA DIR/SP/G            HT/PER
                 (UTC) (F)     (DEG/KT/KT) (MB)    (FT/S)
W MID LAKE BUOY  0650   54 38  180/  4/  6 1009.3R   1
DEVILS ISLAND    0700   60     220/  6/  7 1009.2R
PORT WING        0700          190/  3/ 11 1009.5
SAXON HARBOR     0700   61     170/  4/  8 1008.8F
$$

LMZ867-665-643>646-240900-
LAKE MICHIGAN

STATION/POSITION TIME  TEMP    WIND        PRES    WAVE
                       AIR SEA DIR/SP/G            HT/PER
                 (UTC) (F)     (DEG/KT/KT) (MB)    (FT/S)
CHAMBERS ISLAND  0700   64     160/  7/ 14 1011.5
N MID LAKE BUOY  0650   49 44  200/ 10/ 12 1012.0S   2/ 5
NORTHPORT PIER   0700   60     170/  7/ 13 1011.9S
SISTER BAY       0720   63     180/ 16/ 19   N/A
ALGOMA LAKESHORE 0701          210/ 13/ 14   N/A
KEWAUNEE LAKESHO 0700   53     180/  9/ 10 1011.8F
SHEBOYGAN LAKESH 0700   57     180/ 14/ 15 1013.3F
PORT WASHINGTON  0700   56      CALM  /  3 1013.5
S MID LAKE BUOY  0650   55 49  160/ 12/ 12 1013.6S   1
KENOSHA   LAKESH 0700   59     190/  6/  7 1013.2S
$$

TC  - TEMPERATURE IN CELSIUS
VSB - VISIBILITY IN STATUTE MILES
WCI - WIND CHILL INDEX
HX  - HEAT INDEX





USA.gov is the U.S. government's official web portal to all federal, state and local government web resources and services.